This is the latest recevied weather packets stored in our database for station/object KA3RQR. If no packets are shown the sender has not sent any weather packets the latest 10 day(s).
| Time | Temp. | Humidity | Pressure | Rain* | Wind** | Luminosity | Snow |
|---|---|---|---|---|---|---|---|
| 1778008046 | 27.78° C | 31% | 1010 hPa | 0 mm | - | 444 W/m² | - |
| 1778007746 | 27.78° C | 32% | 1010.2 hPa | 0 mm | - | 167 W/m² | - |
| 1778007443 | 27.78° C | 33% | 1010.4 hPa | 0 mm | - | 78 W/m² | - |
| 1778007139 | 27.78° C | 32% | 1010.3 hPa | 0 mm | - | 132 W/m² | - |
| 1778006835 | 27.78° C | 32% | 1010.5 hPa | 0 mm | - | 182 W/m² | - |
| 1778006533 | 27.78° C | 33% | 1010.5 hPa | 0 mm | - | 107 W/m² | - |
| 1778006229 | 27.78° C | 32% | 1010.7 hPa | 0 mm | - | 115 W/m² | - |
| 1778005927 | 27.78° C | 35% | 1010.5 hPa | 0 mm | - | 353 W/m² | - |
| 1778005623 | 27.78° C | 32% | 1010.5 hPa | 0 mm | - | 71 W/m² | - |
| 1778005320 | 27.22° C | 35% | 1010.8 hPa | 0 mm | - | 131 W/m² | - |
| 1778005016 | 27.22° C | 35% | 1010.9 hPa | 0 mm | - | 66 W/m² | - |
| 1778004714 | 27.22° C | 34% | 1011.1 hPa | 0 mm | - | 63 W/m² | - |
| 1778004410 | 27.22° C | 34% | 1010.9 hPa | 0 mm | - | 61 W/m² | - |
| 1778004108 | 27.22° C | 37% | 1010.8 hPa | 0 mm | - | 60 W/m² | - |
| 1778003803 | 27.22° C | 35% | 1011 hPa | 0 mm | - | 61 W/m² | - |
| 1778003500 | 27.22° C | 35% | 1011.3 hPa | 0 mm | - | 58 W/m² | - |
| 1778003197 | 26.67° C | 35% | 1011.3 hPa | 0 mm | - | 57 W/m² | - |
| 1778002893 | 26.67° C | 37% | 1011.3 hPa | 0 mm | - | 58 W/m² | - |
| 1778002590 | 26.67° C | 36% | 1011.4 hPa | 0 mm | - | 55 W/m² | - |
| 1778002287 | 26.67° C | 37% | 1011.2 hPa | 0 mm | - | 53 W/m² | - |
| 1778001984 | 26.67° C | 37% | 1011.2 hPa | 0 mm | - | 53 W/m² | - |
| 1778001681 | 26.67° C | 38% | 1011.3 hPa | 0 mm | - | 50 W/m² | - |
| 1778001375 | 26.67° C | 39% | 1011.6 hPa | 0 mm | - | 51 W/m² | - |
| 1778001073 | 26.67° C | 36% | 1011.6 hPa | 0 mm | - | 49 W/m² | - |
| 1778000770 | 26.67° C | 37% | 1011.5 hPa | 0 mm | - | 49 W/m² | - |
* Rain latest hour (hover to see other rain measurements)
** Current wind speed in m/s (hover to see current wind gust speed)